Weather History for Blytheville Muni Airport, AR

Change the Weather History Date:

Sunday, June 9, 2013

  Actual Average Record
Temperature  
Mean Temperature 77 °F -  
Max Temperature 86 °F 89 °F 100 °F (1952)
Min Temperature 68 °F 68 °F 52 °F (1930)
Cooling Degree Days 12    
Growing Degree Days 27 (Base 50)    
Moisture  
Dew Point 66 °F    
Average Humidity 75    
Maximum Humidity 94    
Minimum Humidity 53    
Precipitation  
Precipitation 0.28 in - - ()
Sea Level Pressure  
Sea Level Pressure 29.89 in    
Wind  
Wind Speed 9 mph (SSW)    
Max Wind Speed 23 mph    
Max Gust Speed 34 mph    
Visibility 9 miles    
Events Rain , Thunderstorm    
Averages and records for this station are not official NWS values.
T = Trace of Precipitation, MM = Missing Value Source: NWS Daily Summary

Daily Weather History Graph

Daily Weather History Graph

Search for Another Location

Airport:

Trip Planner

Search our weather history database for the weather conditions in past years. The results will help you decide how hot, cold, wet, or windy it might be!

Date:

Astronomy

Jun. 09, 2013 Rise Set
Actual Time 5:42 AM CDT 8:15 PM CDT
Civil Twilight 5:12 AM CDT 8:45 PM CDT
Nautical Twilight 4:35 AM CDT 9:22 PM CDT
Astronomical Twilight 3:53 AM CDT 10:03 PM CDT
Moon 6:37 AM CDT (6/9) 9:04 PM CDT (6/9)
Length of Visible Light 15h 32m
Length of Day
14h 32m
New Moon, 1% of the Moon is Illuminated
Jun 9
New Moon
Jun 16
First Quarter
Jun 23
Full
Jun 29
Last Quarter
Jul 8
New

Hourly Weather History & Observations

Time (CDT) Temp. Heat Index Dew Point Humidity Pressure Visibility Wind Dir Wind Speed Gust Speed Precip Events Conditions
12:53 AM 70.0 °F - 60.1 °F 71% 29.98 in 10.0 mi SSE 6.9 mph - N/A   Clear
1:53 AM 71.1 °F - 57.9 °F 63% 29.97 in 10.0 mi SSE 8.1 mph - N/A   Mostly Cloudy
2:53 AM 71.1 °F - 59.0 °F 66% 29.96 in 10.0 mi SSE 3.5 mph - N/A   Overcast
3:53 AM 71.1 °F - 59.0 °F 66% 29.96 in 10.0 mi South 3.5 mph - N/A   Overcast
4:53 AM 71.1 °F - 59.0 °F 66% 29.94 in 10.0 mi SE 4.6 mph - N/A   Overcast
5:53 AM 71.1 °F - 59.0 °F 66% 29.96 in 10.0 mi South 12.7 mph - N/A   Overcast
6:53 AM 68.0 °F - 66.0 °F 93% 29.94 in 10.0 mi SSE 8.1 mph - 0.01 in   Scattered Clouds
7:53 AM 72.0 °F - 66.9 °F 84% 29.93 in 10.0 mi South 6.9 mph - N/A   Mostly Cloudy
8:53 AM 73.0 °F - 66.9 °F 81% 29.95 in 10.0 mi SSE 8.1 mph - N/A   Overcast
9:53 AM 73.9 °F - 66.0 °F 76% 29.94 in 10.0 mi South 11.5 mph - N/A   Overcast
10:53 AM 78.1 °F - 66.9 °F 68% 29.94 in 10.0 mi South 12.7 mph 19.6 mph N/A   Scattered Clouds
11:48 AM 80.6 °F 83.9 °F 69.8 °F 70% 29.92 in 10.0 mi SSW 15.0 mph 21.9 mph N/A   Mostly Cloudy
11:53 AM 80.1 °F 82.7 °F 68.0 °F 67% 29.92 in 10.0 mi SW 12.7 mph 24.2 mph N/A   Mostly Cloudy
12:53 PM 82.9 °F 86.5 °F 69.1 °F 63% 29.88 in 10.0 mi SSW 17.3 mph 23.0 mph N/A Thunderstorm Thunderstorm
1:04 PM 84.2 °F 88.4 °F 69.8 °F 62% 29.88 in 10.0 mi SSW 15.0 mph 23.0 mph N/A Thunderstorm Mostly Cloudy
1:19 PM 84.2 °F 87.3 °F 68.0 °F 58% 29.87 in 10.0 mi SSW 11.5 mph 20.7 mph N/A   Scattered Clouds
1:33 PM 84.2 °F 87.3 °F 68.0 °F 58% 29.86 in 10.0 mi SW 13.8 mph - N/A Thunderstorm Mostly Cloudy
1:51 PM 82.4 °F 84.6 °F 66.2 °F 58% 29.86 in 9.0 mi SW 18.4 mph 26.5 mph 0.00 in Rain Light Rain
1:53 PM 80.1 °F 82.7 °F 68.0 °F 67% 29.86 in 7.0 mi SW 20.7 mph 26.5 mph 0.01 in Rain , Thunderstorm Heavy Rain
2:21 PM 78.8 °F - 69.8 °F 74% 29.85 in 10.0 mi South 6.9 mph - 0.00 in   Mostly Cloudy
2:53 PM 81.0 °F 83.8 °F 68.0 °F 65% 29.84 in 10.0 mi South 6.9 mph - 0.00 in   Clear
3:53 PM 86.0 °F 88.8 °F 66.9 °F 53% 29.83 in 10.0 mi SW 13.8 mph 23.0 mph 0.01 in   Partly Cloudy
4:53 PM 75.9 °F - 66.0 °F 71% 29.84 in 10.0 mi WNW 23.0 mph 34.5 mph N/A Thunderstorm Mostly Cloudy
5:11 PM 69.8 °F - 64.4 °F 83% 29.88 in 3.0 mi West 18.4 mph 32.2 mph 0.01 in Rain Heavy Rain
5:14 PM 69.8 °F - 64.4 °F 83% 29.88 in 1.8 mi West 16.1 mph 27.6 mph 0.02 in Rain Heavy Rain
5:24 PM 68.0 °F - 66.2 °F 94% 29.86 in 3.0 mi WNW 10.4 mph 23.0 mph 0.03 in Rain Light Rain
5:53 PM 70.0 °F - 66.9 °F 90% 29.86 in 10.0 mi Calm Calm - 0.07 in   Overcast
6:53 PM 70.0 °F - 66.9 °F 90% 29.84 in 5.0 mi South 6.9 mph - 0.06 in Rain Rain
7:53 PM 70.0 °F - 66.9 °F 90% 29.84 in 10.0 mi Calm Calm - 0.04 in   Overcast
8:53 PM 69.1 °F - 66.9 °F 93% 29.84 in 10.0 mi SE 5.8 mph - 0.03 in   Clear
9:53 PM 69.1 °F - 66.9 °F 93% 29.87 in 10.0 mi South 6.9 mph - 0.03 in   Mostly Cloudy
10:53 PM 69.1 °F - 66.9 °F 93% 29.88 in 10.0 mi South 6.9 mph - 0.01 in   Overcast
11:53 PM 69.1 °F - 66.9 °F 93% 29.88 in 10.0 mi South 5.8 mph - 0.01 in   Scattered Clouds